Duluth, MN

5:52 PM CST on February 08, 2016 (GMT -0600)
Duluth International

Weather History for KDLH - September, 2013

Change the Weather History Date:

Saturday, September 14, 2013

  Actual Average Record
Temperature  
Mean Temperature 60 °F 56 °F  
Max Temperature 69 °F 66 °F 84 °F (1920)
Min Temperature 50 °F 47 °F 30 °F (1964)
Degree Days  
Heating Degree Days 5 9  
Month to date heating degree days 51 97  
Since 1 July heating degree days 125 246  
Cooling Degree Days 0 0  
Month to date cooling degree days 22 13  
Year to date cooling degree days 373 203  
Growing Degree Days 10 (Base 50)    
Moisture  
Dew Point 47 °F    
Average Humidity 67    
Maximum Humidity 86    
Minimum Humidity 48    
Precipitation  
Precipitation 0.16 in 0.14 in 3.30 in (1941)
Month to date precipitation 0.50 1.95  
Year to date precipitation 22.09 22.65  
Snow  
Snow 0.00 in 0.00 in T in (2011)
Month to date snowfall 0.0 0.0  
Since 1 July snowfall 0.0 0.0  
Since 1 September snowfall 0.0 0.0  
Snow Depth 0.00 in    
Sea Level Pressure  
Sea Level Pressure 29.99 in    
Wind  
Wind Speed 11 mph (WSW)    
Max Wind Speed 24 mph    
Max Gust Speed 30 mph    
Visibility 10 miles    
Events Rain    
T = Trace of Precipitation, MM = Missing Value Source: NWS Daily Summary

Daily Weather History Graph

Daily Weather History Graph

Search for Another Location

Airport or City:

Trip Planner

Search our weather history database for the weather conditions in past years. The results will help you decide how hot, cold, wet, or windy it might be!

Date:

Astronomy

Sep. 14, 2013 Rise Set
Actual Time 6:45 AM CDT 7:21 PM CDT
Civil Twilight 6:14 AM CDT 7:52 PM CDT
Nautical Twilight 5:38 AM CDT 8:28 PM CDT
Astronomical Twilight 5:00 AM CDT 9:06 PM CDT
Moon 4:17 PM CDT (9/14) 1:02 AM CDT (9/14)
Length of Visible Light 13h 37m
Length of Day
12h 36m
Waxing Gibbous, 72% of the Moon is Illuminated
Sep 14
Waxing Gibbous
Sep 19
Full
Sep 26
Last Quarter
Oct 4
New
Oct 11
First Quarter

Hourly Weather History & Observations

Time (CDT) Temp. Dew Point Humidity Pressure Visibility Wind Dir Wind Speed Gust Speed Precip Events Conditions
12:55 AM 52.0 °F 43.0 °F 71% 30.07 in 10.0 mi SSW 5.8 mph - N/A   Clear
1:55 AM 51.1 °F 43.0 °F 74% 30.07 in 10.0 mi SW 5.8 mph - N/A   Clear
2:55 AM 51.1 °F 43.0 °F 74% 30.05 in 10.0 mi SW 8.1 mph - N/A   Clear
3:55 AM 51.1 °F 42.1 °F 71% 30.04 in 10.0 mi SW 10.4 mph - N/A   Clear
4:55 AM 52.0 °F 43.0 °F 71% 30.03 in 10.0 mi SW 10.4 mph - N/A   Clear
5:55 AM 52.0 °F 43.0 °F 71% 30.03 in 10.0 mi SW 11.5 mph - N/A   Clear
6:55 AM 52.0 °F 43.0 °F 71% 30.03 in 10.0 mi SW 11.5 mph - N/A   Clear
7:55 AM 53.1 °F 43.0 °F 69% 30.03 in 10.0 mi SW 13.8 mph - N/A   Clear
8:55 AM 57.9 °F 45.0 °F 62% 30.01 in 10.0 mi SW 16.1 mph - N/A   Clear
9:55 AM 61.0 °F 46.0 °F 58% 29.99 in 10.0 mi WSW 13.8 mph 20.7 mph N/A   Clear
10:55 AM 66.0 °F 46.9 °F 50% 29.97 in 10.0 mi WSW 15.0 mph 21.9 mph N/A   Clear
11:55 AM 66.9 °F 48.9 °F 52% 29.96 in 10.0 mi SW 11.5 mph - N/A   Clear
12:55 PM 69.1 °F 50.0 °F 51% 29.94 in 10.0 mi SSW 12.7 mph - N/A   Clear
1:55 PM 68.0 °F 51.1 °F 55% 29.93 in 10.0 mi WSW 10.4 mph - N/A   Clear
2:55 PM 69.1 °F 51.1 °F 53% 29.92 in 10.0 mi SW 10.4 mph - N/A   Scattered Clouds
3:55 PM 68.0 °F 51.1 °F 55% 29.93 in 10.0 mi SW 10.4 mph - N/A   Mostly Cloudy
4:55 PM 66.0 °F 51.1 °F 59% 29.93 in 10.0 mi WSW 5.8 mph - N/A   Scattered Clouds
5:55 PM 64.9 °F 51.1 °F 61% 29.93 in 10.0 mi WSW 13.8 mph - N/A   Scattered Clouds
6:55 PM 57.9 °F 48.9 °F 72% 29.96 in 10.0 mi WSW 19.6 mph 27.6 mph N/A   Overcast
7:55 PM 55.9 °F 50.0 °F 80% 29.98 in 9.0 mi WSW 17.3 mph - 0.04 in Rain Rain
8:55 PM 55.0 °F 51.1 °F 86% 29.97 in 10.0 mi WSW 11.5 mph - 0.07 in Rain Light Rain
9:36 PM 55.4 °F 51.8 °F 88% 29.96 in 10.0 mi NNW 5.8 mph - 0.02 in Rain Light Rain
9:55 PM 55.0 °F 52.0 °F 89% 29.97 in 10.0 mi West 4.6 mph - 0.03 in Rain Light Rain
10:55 PM 55.9 °F 51.1 °F 84% 29.96 in 10.0 mi West 5.8 mph - 0.02 in Rain Light Rain
11:55 PM 55.0 °F 51.1 °F 86% 29.96 in 10.0 mi NNW 4.6 mph - 0.00 in Rain Light Rain